Content
SEND FEEDBACK

Daily
Averages
Monthly
Summary
United States of America

WILLIAMSPORT, MARYLAND


Home > North America > United States > Maryland
Elevation: 36 feet     Latitude: 39 37N     Longitude: 077 51W

WEATHER
 
SELECT A DAY
Number of Records: 189,867;   Date Range: 1/1/95 - 10/19/14
 
SHARE

PRINT THIS DATA

[ ← Previous Day ]
WEATHER ALMANAC - JUNE 19, 2014
[ Next Day → ]
[ °C ]   °F
Weather ElementAverageHighLow
Temperature72.2 °F78.1 °F (1:53 pm)66.9 °F (10:53 pm)
Dewpoint66.2 °F69.1 °F (2:53 pm)63 °F (1:53 am)
Humidity82 %96 % (2:27 pm)64 % (1:53 pm)
Barometer30.05 in30.09 in (9:53 pm)30.01 in (1:53 am)
Wind Speed7.7 mph17.3 mph (2:20 pm)
Wind Gust31.1 mph (2:20 pm)
Weather ElementAverage
Visibility7.3 mi
Wind DirectionSSE (153.5 °)

Weather ElementTotal
Precipitation4.57 in
Cooling Degree Days7.5 (Base 65)
Growing Degree Days22.5 (Base 50)
Averaged from 31 records on June 19, 2014
WEATHER CONDITIONS BREAKOUT
WIND DIRECTION BREAKOUT
WEATHER BY HOUR - JUNE 19, 2014
[ °C ]   °F
Local TimeTemperatureDewpointHumidityBarometerVisibilityWind DirectionWind SpeedGust SpeedPrecipitationEventsConditions
1:53 AM73.0 °F63.0 °F71 %30.01 in10.0 miNW (310°)11.5 mphClear
3:53 AM72.0 °F63.0 °F73 %30.01 in10.0 miWest (270°)3.5 mphClear
4:53 AM72.0 °F64.0 °F76 %30.02 in10.0 miCalmPartly Cloudy
6:53 AM72.0 °F64.9 °F78 %30.03 in10.0 miENE (60°)3.5 mphClear
7:53 AM73.0 °F66.0 °F79 %30.04 in10.0 miWNW (300°)4.6 mphClear
8:53 AM75.0 °F64.9 °F71 %30.06 in10.0 miWNW (300°)5.8 mphClear
9:53 AM75.9 °F64.9 °F69 %30.06 in10.0 miVariable3.5 mphMostly Cloudy
10:53 AM75.9 °F66.0 °F71 %30.06 in10.0 miVariable3.5 mphMostly Cloudy
11:53 AM77.0 °F64.9 °F66 %30.07 in10.0 miWNW (290°)3.5 mphPartly Cloudy
12:53 PM77.0 °F66.0 °F69 %30.05 in10.0 miCalmOvercast
1:53 PM78.1 °F64.9 °F64 %30.03 in10.0 miSSW (210°)5.8 mphOvercast
2:16 PM73.9 °F68.0 °F82 %30.03 in1.2 miNorth0.16 inRainLight Rain
2:20 PM69.1 °F66.9 °F93 %30.04 in0.5 miNorth (350°)17.3 mph31.1 mph0.43 inFog-RainHeavy Rain
2:23 PM69.1 °F66.9 °F93 %30.03 in0.2 miNorth (10°)17.3 mph31.1 mph0.60 inFog-RainHeavy Rain
2:27 PM69.1 °F68.0 °F96 %30.03 in0.5 miNorth (360°)16.1 mph0.63 inFog-Rain-ThunderstormHeavy Thunderstorms and Rain
2:32 PM69.1 °F68.0 °F96 %30.04 in1.0 miNorth (360°)13.8 mph0.65 inRain-ThunderstormThunderstorms and Rain
2:36 PM69.1 °F68.0 °F96 %30.04 in1.2 miNorth (10°)13.8 mph0.68 inRain-ThunderstormHeavy Thunderstorms and Rain
2:44 PM70.0 °F68.0 °F93 %30.04 in2.0 miNNE (20°)13.8 mph0.70 inRain-ThunderstormRain
2:53 PM71.1 °F69.1 °F93 %30.06 in3.0 miNNE (20°)10.4 mph0.72 inRain-ThunderstormRain
3:00 PM71.1 °F69.1 °F93 %30.04 in5.0 miNNE (20°)8.1 mph0.00 inRainLight Rain
3:53 PM73.0 °F69.1 °F87 %30.06 in6.0 miNorth (10°)9.2 mph0.00 inOvercast
4:53 PM73.9 °F68.0 °F82 %30.04 in8.0 miNNE (30°)9.2 mphMostly Cloudy
5:10 PM73.9 °F68.0 °F82 %30.03 in9.0 miNNE (30°)9.2 mphMostly Cloudy
5:35 PM73.9 °F66.0 °F76 %30.03 in10.0 miNE (40°)9.2 mphOvercast
5:53 PM73.0 °F66.0 °F79 %30.05 in10.0 miEast (80°)9.2 mphOvercast
6:53 PM73.9 °F66.9 °F79 %30.05 in10.0 miNNE (20°)6.9 mphOvercast
7:53 PM73.0 °F64.9 °F76 %30.07 in10.0 miNorth (360°)4.6 mphOvercast
8:53 PM70.0 °F66.0 °F87 %30.06 in10.0 miNW (320°)5.8 mphClear
9:53 PM68.0 °F66.0 °F93 %30.09 in10.0 miNNW (340°)5.8 mphClear
10:53 PM66.9 °F64.0 °F90 %30.09 in10.0 miNW (320°)3.5 mphClear
11:53 PM66.9 °F64.0 °F90 %30.08 in10.0 miNW (320°)3.5 mphClear
Hourly data recorded from KHGR, located miles away from Williamsport, Maryland







STORIES FROM OUR PARTNERS